| time (UTC) | temp F | wind direction | speed MPH | gust MPH | rain 1hr in | rain 24hr in | rain mn in | humidity % | barometer mb |
| 20260510071009 | 58 | 298 | 2.0 | 7.0 | 0.00 | 0.00 | 0.00 | 75 | 1010.6 |
| 20260510070507 | 58 | 256 | 2.0 | 7.0 | 0.00 | 0.00 | 0.00 | 77 | 1010.6 |
| 20260510070026 | 58 | 238 | 1.0 | 3.0 | 0.00 | 0.00 | 0.00 | 76 | 1010.7 |
| 20260510065504 | 58 | 238 | 0.0 | 3.0 | 0.00 | 0.01 | 0.00 | 75 | 1010.5 |
| 20260510065007 | 58 | 252 | 0.0 | 3.0 | 0.00 | 0.01 | 0.00 | 75 | 1010.4 |
| 20260510064004 | 58 | 244 | 1.0 | 4.0 | 0.00 | 0.01 | 0.00 | 75 | 1010.3 |
| 20260510063507 | 58 | 280 | 0.0 | 2.0 | 0.00 | 0.01 | 0.00 | 75 | 1010.3 |
| 20260510063027 | 58 | 257 | 1.0 | 3.0 | 0.00 | 0.01 | 0.00 | 74 | 1010.3 |
| 20260510062511 | 59 | 261 | 0.0 | 4.0 | 0.00 | 0.01 | 0.00 | 74 | 1010.3 |
| 20260510062008 | 59 | 276 | 1.0 | 4.0 | 0.00 | 0.02 | 0.00 | 74 | 1010.3 |
| 20260510061525 | 59 | 284 | 2.0 | 4.0 | 0.00 | 0.03 | 0.00 | 73 | 1010.3 |
| 20260510061008 | 60 | 276 | 1.0 | 4.0 | 0.00 | 0.03 | 0.00 | 72 | 1010.2 |
| 20260510060510 | 60 | 215 | 1.0 | 5.0 | 0.00 | 0.03 | 0.00 | 72 | 1010.2 |
| 20260510060025 | 60 | 200 | 2.0 | 8.0 | 0.00 | 0.03 | 0.00 | 72 | 1010.2 |
| 20260510055507 | 61 | 277 | 3.0 | 9.0 | 0.00 | 0.03 | 0.00 | 72 | 1010.1 |
| 20260510055009 | 61 | 194 | 2.0 | 8.0 | 0.00 | 0.03 | 0.00 | 72 | 1010.2 |
| 20260510054007 | 62 | 180 | 3.0 | 12.0 | 0.00 | 0.03 | 0.00 | 72 | 1010.2 |
| 20260510053507 | 62 | 159 | 5.0 | 12.0 | 0.00 | 0.03 | 0.00 | 71 | 1010.1 |
| 20260510052507 | 62 | 205 | 3.0 | 15.0 | 0.00 | 0.03 | 0.00 | 71 | 1010.1 |
| 20260510052008 | 63 | 212 | 2.0 | 15.0 | 0.00 | 0.03 | 0.00 | 71 | 1010.1 |
| 20260510051521 | 63 | 360 | 2.0 | 9.0 | 0.00 | 0.03 | 0.00 | 71 | 1010.0 |
| 20260510051008 | 62 | 152 | 3.0 | 11.0 | 0.00 | 0.03 | 0.00 | 71 | 1009.9 |
| 20260510050509 | 62 | 297 | 4.0 | 10.0 | 0.00 | 0.03 | 0.00 | 72 | 1009.9 |
| 20260510050023 | 62 | 280 | 2.0 | 4.0 | 0.00 | 0.03 | 0.00 | 73 | 1009.8 |
| 20260510045510 | 62 | 269 | 2.0 | 8.0 | 0.00 | 0.03 | 0.00 | 74 | 1009.8 |
| 20260510045011 | 62 | 204 | 2.0 | 8.0 | 0.00 | 0.03 | 0.00 | 74 | 1009.7 |
| 20260510044524 | 61 | 242 | 2.0 | 8.0 | 0.00 | 0.03 | 0.00 | 75 | 1009.5 |
| 20260510044012 | 61 | 345 | 2.0 | 6.0 | 0.00 | 0.03 | 0.00 | 75 | 1009.4 |
| 20260510043510 | 61 | 266 | 1.0 | 5.0 | 0.00 | 0.03 | 0.00 | 76 | 1009.5 |
| 20260510042506 | 61 | 172 | 1.0 | 3.0 | 0.00 | 0.03 | 0.00 | 76 | 1009.3 |
| 20260510041521 | 62 | 196 | 0.0 | 3.0 | 0.00 | 0.03 | 0.00 | 74 | 1009.2 |
| 20260510041009 | 62 | 287 | 0.0 | 3.0 | 0.00 | 0.03 | 0.00 | 73 | 1009.1 |
| 20260510040509 | 62 | 183 | 1.0 | 4.0 | 0.00 | 0.03 | 0.00 | 72 | 1009.1 |
| 20260510040027 | 62 | 227 | 1.0 | 5.0 | 0.00 | 0.03 | 0.00 | 71 | 1009.2 |
| 20260510035508 | 62 | 287 | 1.0 | 5.0 | 0.00 | 0.03 | 0.03 | 71 | 1009.1 |
| 20260510035011 | 62 | 232 | 1.0 | 5.0 | 0.00 | 0.03 | 0.03 | 71 | 1009.1 |
| 20260510034534 | 62 | 163 | 1.0 | 6.0 | 0.00 | 0.03 | 0.03 | 71 | 1009.1 |
| 20260510034009 | 62 | 194 | 1.0 | 6.0 | 0.00 | 0.03 | 0.03 | 71 | 1009.0 |
| 20260510033512 | 62 | 169 | 1.0 | 5.0 | 0.00 | 0.03 | 0.03 | 70 | 1008.9 |
| 20260510033030 | 62 | 253 | 2.0 | 4.0 | 0.00 | 0.03 | 0.03 | 70 | 1008.9 |
| 20260510032509 | 62 | 196 | 1.0 | 3.0 | 0.00 | 0.04 | 0.03 | 70 | 1009.0 |
| 20260510031531 | 62 | 176 | 2.0 | 5.0 | 0.00 | 0.04 | 0.03 | 70 | 1008.8 |
| 20260510031006 | 62 | 189 | 0.0 | 3.0 | 0.00 | 0.04 | 0.03 | 70 | 1008.8 |
| 20260510025511 | 62 | 208 | 2.0 | 4.0 | 0.00 | 0.04 | 0.03 | 69 | 1008.8 |
| 20260510025009 | 62 | 193 | 2.0 | 4.0 | 0.00 | 0.05 | 0.03 | 69 | 1008.8 |
| 20260510024526 | 62 | 190 | 1.0 | 4.0 | 0.00 | 0.05 | 0.03 | 69 | 1008.8 |
| 20260510024013 | 62 | 200 | 2.0 | 3.0 | 0.00 | 0.05 | 0.03 | 69 | 1008.8 |
| 20260510023508 | 62 | 206 | 1.0 | 3.0 | 0.00 | 0.05 | 0.03 | 68 | 1008.8 |
| 20260510023028 | 62 | 196 | 0.0 | 2.0 | 0.00 | 0.05 | 0.03 | 68 | 1008.7 |
| 20260510022511 | 63 | 188 | 1.0 | 2.0 | 0.00 | 0.05 | 0.03 | 68 | 1008.6 |
| 20260510022009 | 63 | 219 | 0.0 | 2.0 | 0.00 | 0.05 | 0.03 | 68 | 1008.5 |
| 20260510021535 | 63 | 184 | 0.0 | 4.0 | 0.00 | 0.05 | 0.03 | 67 | 1008.5 |
| 20260510021012 | 63 | 204 | 0.0 | 4.0 | 0.00 | 0.05 | 0.03 | 67 | 1008.4 |
| 20260510020020 | 64 | 190 | 3.0 | 5.0 | 0.00 | 0.05 | 0.03 | 66 | 1008.3 |
| 20260510014507 | 64 | 158 | 1.0 | 5.0 | 0.00 | 0.05 | 0.03 | 65 | 1008.0 |
| 20260510013006 | 65 | 205 | 0.0 | 6.0 | 0.00 | 0.05 | 0.03 | 64 | 1007.8 |
| 20260510011513 | 66 | 199 | 2.0 | 7.0 | 0.00 | 0.06 | 0.03 | 62 | 1007.6 |
| 20260510011007 | 66 | 215 | 2.0 | 7.0 | 0.00 | 0.06 | 0.03 | 62 | 1007.5 |
| 20260510010501 | 66 | 159 | 2.0 | 9.0 | 0.00 | 0.06 | 0.03 | 61 | 1007.6 |
| 20260510010005 | 66 | 200 | 1.0 | 9.0 | 0.00 | 0.06 | 0.03 | 60 | 1007.5 |
| 20260510005500 | 67 | 175 | 3.0 | 8.0 | 0.00 | 0.06 | 0.03 | 60 | 1007.5 |
| 20260510005000 | 67 | 217 | 3.0 | 10.0 | 0.00 | 0.06 | 0.03 | 59 | 1007.5 |
| 20260510004503 | 67 | 281 | 2.0 | 12.0 | 0.00 | 0.06 | 0.03 | 59 | 1007.4 |
| 20260510004007 | 67 | 196 | 4.0 | 12.0 | 0.00 | 0.06 | 0.03 | 59 | 1007.2 |
| 20260510003503 | 67 | 186 | 4.0 | 7.0 | 0.00 | 0.06 | 0.03 | 59 | 1007.3 |
| 20260510003007 | 67 | 208 | 3.0 | 7.0 | 0.00 | 0.06 | 0.03 | 59 | 1007.3 |
| 20260510001004 | 68 | 160 | 2.0 | 7.0 | 0.00 | 0.06 | 0.03 | 58 | 1007.0 |
| 20260510000018 | 68 | 193 | 3.0 | 10.0 | 0.00 | 0.06 | 0.03 | 57 | 1007.1 |
| 20260509235502 | 68 | 169 | 3.0 | 10.0 | 0.00 | 0.06 | 0.03 | 57 | 1006.9 |
| 20260509235001 | 68 | 210 | 3.0 | 8.0 | 0.00 | 0.06 | 0.03 | 57 | 1006.9 |
| 20260509234504 | 69 | 171 | 3.0 | 8.0 | 0.00 | 0.06 | 0.03 | 57 | 1006.8 |
| 20260509234004 | 69 | 196 | 3.0 | 11.0 | 0.00 | 0.06 | 0.03 | 56 | 1006.8 |
| 20260509233503 | 69 | 205 | 3.0 | 11.0 | 0.00 | 0.06 | 0.03 | 55 | 1006.8 |
| 20260509233003 | 69 | 168 | 2.0 | 20.0 | 0.00 | 0.06 | 0.03 | 55 | 1006.7 |
| 20260509232503 | 69 | 187 | 6.0 | 20.0 | 0.00 | 0.06 | 0.03 | 55 | 1006.8 |
| 20260509232003 | 70 | 188 | 5.0 | 12.0 | 0.00 | 0.06 | 0.03 | 54 | 1006.7 |
| 20260509231510 | 70 | 172 | 4.0 | 12.0 | 0.00 | 0.06 | 0.03 | 54 | 1006.7 |
| 20260509230014 | 71 | 240 | 5.0 | 15.0 | 0.00 | 0.06 | 0.03 | 51 | 1006.7 |
| 20260509225004 | 71 | 184 | 7.0 | 18.0 | 0.00 | 0.06 | 0.03 | 51 | 1006.7 |
| 20260509224504 | 71 | 271 | 7.0 | 15.0 | 0.00 | 0.06 | 0.03 | 51 | 1006.7 |
| 20260509224003 | 71 | 212 | 8.0 | 14.0 | 0.00 | 0.06 | 0.03 | 49 | 1006.6 |
| 20260509223503 | 72 | 211 | 5.0 | 14.0 | 0.00 | 0.06 | 0.03 | 50 | 1006.6 |
| 20260509223003 | 72 | 192 | 5.0 | 14.0 | 0.00 | 0.06 | 0.03 | 50 | 1006.4 |
| 20260509222004 | 72 | 259 | 6.0 | 18.0 | 0.00 | 0.06 | 0.03 | 50 | 1006.4 |
| 20260509221507 | 72 | 132 | 4.0 | 18.0 | 0.00 | 0.06 | 0.03 | 50 | 1006.4 |
| 20260509221003 | 72 | 194 | 6.0 | 16.0 | 0.00 | 0.06 | 0.03 | 49 | 1006.3 |
| 20260509220009 | 72 | 211 | 4.0 | 14.0 | 0.00 | 0.06 | 0.03 | 51 | 1006.2 |
| 20260509214517 | 72 | 150 | 6.0 | 15.0 | 0.00 | 0.06 | 0.03 | 50 | 1006.1 |
| 20260509214011 | 72 | 243 | 5.0 | 15.0 | 0.00 | 0.06 | 0.03 | 52 | 1006.2 |
| 20260509213004 | 72 | 196 | 6.0 | 14.0 | 0.00 | 0.06 | 0.03 | 54 | 1006.2 |
| 20260509212503 | 72 | 162 | 5.0 | 17.0 | 0.00 | 0.06 | 0.03 | 51 | 1006.3 |
| 20260509212003 | 72 | 221 | 6.0 | 17.0 | 0.00 | 0.06 | 0.03 | 53 | 1006.4 |
| 20260509211508 | 72 | 158 | 6.0 | 17.0 | 0.00 | 0.06 | 0.03 | 54 | 1006.4 |
| 20260509210012 | 72 | 181 | 8.0 | 16.0 | 0.00 | 0.06 | 0.03 | 54 | 1006.6 |
| 20260509205005 | 72 | 174 | 5.0 | 12.0 | 0.00 | 0.06 | 0.03 | 53 | 1006.4 |
| 20260509204533 | 72 | 159 | 5.0 | 18.0 | 0.00 | 0.06 | 0.03 | 55 | 1006.4 |
| 20260509204008 | 71 | 146 | 6.0 | 18.0 | 0.00 | 0.06 | 0.03 | 57 | 1006.5 |
| 20260509203508 | 71 | 167 | 6.0 | 15.0 | 0.00 | 0.06 | 0.03 | 56 | 1006.6 |
| 20260509203019 | 71 | 196 | 8.0 | 15.0 | 0.00 | 0.06 | 0.03 | 57 | 1006.6 |
| 20260509202006 | 71 | 196 | 5.0 | 17.0 | 0.00 | 0.06 | 0.03 | 57 | 1006.7 |
| 20260509201504 | 71 | 165 | 6.0 | 17.0 | 0.00 | 0.06 | 0.03 | 57 | 1006.7 |
| 20260509201003 | 71 | 114 | 5.0 | 15.0 | 0.00 | 0.06 | 0.03 | 57 | 1006.8 |
| 20260509200503 | 71 | 196 | 6.0 | 13.0 | 0.00 | 0.06 | 0.03 | 57 | 1007.0 |
| 20260509200008 | 71 | 229 | 6.0 | 13.0 | 0.00 | 0.06 | 0.03 | 59 | 1007.0 |
| 20260509195502 | 71 | 196 | 6.0 | 14.0 | 0.00 | 0.06 | 0.03 | 58 | 1007.1 |
| 20260509194518 | 71 | 157 | 7.0 | 12.0 | 0.00 | 0.06 | 0.03 | 56 | 1007.1 |
| 20260509194007 | 71 | 197 | 6.0 | 12.0 | 0.00 | 0.06 | 0.03 | 59 | 1007.2 |
| 20260509193511 | 71 | 180 | 5.0 | 10.0 | 0.00 | 0.06 | 0.03 | 59 | 1007.1 |
| 20260509193018 | 70 | 215 | 3.0 | 17.0 | 0.00 | 0.06 | 0.03 | 59 | 1007.1 |
| 20260509192508 | 69 | 167 | 7.0 | 17.0 | 0.00 | 0.06 | 0.03 | 59 | 1007.1 |
| 20260509192009 | 69 | 167 | 7.0 | 13.0 | 0.00 | 0.06 | 0.03 | 58 | 1007.2 |
| 20260509191522 | 69 | 198 | 5.0 | 14.0 | 0.00 | 0.06 | 0.03 | 60 | 1007.1 |
| 20260509191007 | 69 | 126 | 6.0 | 14.0 | 0.00 | 0.06 | 0.03 | 59 | 1007.2 |
| 20260509190503 | 69 | 172 | 6.0 | 13.0 | 0.00 | 0.06 | 0.03 | 61 | 1007.2 |
| 20260509190008 | 69 | 222 | 4.0 | 11.0 | 0.00 | 0.06 | 0.03 | 61 | 1007.2 |
| 20260509185504 | 69 | 98 | 5.0 | 13.0 | 0.00 | 0.06 | 0.03 | 63 | 1007.3 |
| 20260509185004 | 69 | 132 | 6.0 | 13.0 | 0.00 | 0.06 | 0.03 | 60 | 1007.3 |
| 20260509184517 | 68 | 158 | 4.0 | 15.0 | 0.00 | 0.06 | 0.03 | 63 | 1007.3 |
| 20260509183507 | 68 | 175 | 6.0 | 16.0 | 0.00 | 0.06 | 0.03 | 64 | 1007.3 |
| 20260509183016 | 68 | 134 | 6.0 | 16.0 | 0.00 | 0.06 | 0.03 | 63 | 1007.4 |
| 20260509182507 | 68 | 136 | 5.0 | 15.0 | 0.00 | 0.06 | 0.03 | 64 | 1007.5 |
| 20260509182009 | 68 | 183 | 6.0 | 10.0 | 0.00 | 0.06 | 0.03 | 64 | 1007.5 |
| 20260509181520 | 68 | 128 | 5.0 | 12.0 | 0.00 | 0.06 | 0.03 | 64 | 1007.5 |
| 20260509181012 | 67 | 185 | 5.0 | 12.0 | 0.00 | 0.06 | 0.03 | 66 | 1007.5 |
| 20260509180508 | 67 | 239 | 4.0 | 12.0 | 0.00 | 0.06 | 0.03 | 64 | 1007.5 |
| 20260509180023 | 67 | 146 | 5.0 | 12.0 | 0.00 | 0.06 | 0.03 | 65 | 1007.6 |
| 20260509175504 | 67 | 141 | 6.0 | 12.0 | 0.00 | 0.06 | 0.03 | 64 | 1007.6 |
| 20260509175004 | 67 | 194 | 6.0 | 12.0 | 0.00 | 0.06 | 0.03 | 63 | 1007.6 |
| 20260509174509 | 67 | 188 | 6.0 | 11.0 | 0.00 | 0.06 | 0.03 | 63 | 1007.7 |
| 20260509174005 | 67 | 136 | 5.0 | 11.0 | 0.00 | 0.06 | 0.03 | 66 | 1007.8 |
| 20260509173503 | 67 | 194 | 6.0 | 13.0 | 0.00 | 0.06 | 0.03 | 64 | 1008.0 |
| 20260509173012 | 66 | 229 | 6.0 | 13.0 | 0.00 | 0.06 | 0.03 | 66 | 1007.8 |
| 20260509172008 | 66 | 178 | 5.0 | 11.0 | 0.00 | 0.06 | 0.03 | 68 | 1008.0 |
| 20260509171532 | 65 | 219 | 5.0 | 10.0 | 0.00 | 0.06 | 0.03 | 67 | 1008.0 |
| 20260509171010 | 65 | 211 | 4.0 | 9.0 | 0.00 | 0.06 | 0.03 | 66 | 1008.0 |
| 20260509170030 | 66 | 187 | 4.0 | 12.0 | 0.00 | 0.06 | 0.03 | 69 | 1008.0 |
| 20260509165010 | 65 | 149 | 4.0 | 14.0 | 0.00 | 0.06 | 0.03 | 66 | 1008.0 |
| 20260509164507 | 65 | 190 | 6.0 | 14.0 | 0.00 | 0.06 | 0.03 | 69 | 1008.0 |
| 20260509164006 | 65 | 142 | 7.0 | 14.0 | 0.00 | 0.06 | 0.03 | 69 | 1008.1 |
| 20260509163503 | 64 | 186 | 5.0 | 12.0 | 0.00 | 0.06 | 0.03 | 70 | 1008.0 |
| 20260509163015 | 64 | 140 | 5.0 | 14.0 | 0.00 | 0.06 | 0.03 | 69 | 1008.1 |
| 20260509162506 | 64 | 278 | 4.0 | 14.0 | 0.00 | 0.06 | 0.03 | 71 | 1008.1 |
| 20260509162007 | 64 | 173 | 3.0 | 14.0 | 0.00 | 0.06 | 0.03 | 71 | 1008.1 |
| 20260509161516 | 64 | 152 | 6.0 | 14.0 | 0.00 | 0.06 | 0.03 | 69 | 1007.9 |
| 20260509161004 | 64 | 175 | 5.0 | 14.0 | 0.00 | 0.06 | 0.03 | 71 | 1008.0 |
| 20260509160508 | 64 | 258 | 3.0 | 12.0 | 0.00 | 0.06 | 0.03 | 73 | 1007.9 |
| 20260509160022 | 63 | 190 | 6.0 | 9.0 | 0.00 | 0.06 | 0.03 | 72 | 1008.0 |
| 20260509155509 | 63 | 196 | 2.0 | 9.0 | 0.00 | 0.06 | 0.03 | 74 | 1007.9 |
| 20260509155009 | 62 | 160 | 4.0 | 15.0 | 0.00 | 0.06 | 0.03 | 75 | 1007.9 |
| 20260509154524 | 62 | 166 | 6.0 | 15.0 | 0.00 | 0.06 | 0.03 | 74 | 1007.9 |
| 20260509153504 | 62 | 271 | 4.0 | 16.0 | 0.00 | 0.06 | 0.03 | 72 | 1007.9 |
| 20260509153013 | 62 | 46 | 3.0 | 12.0 | 0.00 | 0.06 | 0.03 | 75 | 1007.9 |
| 20260509152504 | 62 | 186 | 4.0 | 12.0 | 0.00 | 0.06 | 0.03 | 76 | 1007.8 |
| 20260509152009 | 62 | 177 | 4.0 | 10.0 | 0.00 | 0.06 | 0.03 | 76 | 1007.8 |
| 20260509151518 | 62 | 198 | 5.0 | 10.0 | 0.00 | 0.06 | 0.03 | 77 | 1007.8 |
| 20260509151004 | 61 | 275 | 3.0 | 11.0 | 0.00 | 0.06 | 0.03 | 76 | 1007.9 |
| 20260509150504 | 61 | 267 | 4.0 | 11.0 | 0.00 | 0.06 | 0.03 | 76 | 1008.0 |
| 20260509150030 | 61 | 242 | 4.0 | 11.0 | 0.00 | 0.06 | 0.03 | 77 | 1007.9 |
| 20260509145511 | 61 | 224 | 4.0 | 11.0 | 0.00 | 0.06 | 0.03 | 77 | 1007.9 |
| 20260509144531 | 61 | 202 | 4.0 | 9.0 | 0.00 | 0.06 | 0.03 | 79 | 1007.8 |
| 20260509144012 | 61 | 304 | 2.0 | 9.0 | 0.00 | 0.06 | 0.03 | 79 | 1007.6 |
| 20260509143512 | 60 | 186 | 4.0 | 9.0 | 0.00 | 0.06 | 0.03 | 79 | 1007.5 |
| 20260509143026 | 60 | 129 | 2.0 | 11.0 | 0.00 | 0.06 | 0.03 | 81 | 1007.6 |
| 20260509142005 | 61 | 213 | 5.0 | 9.0 | 0.00 | 0.06 | 0.03 | 79 | 1007.5 |
| 20260509141521 | 60 | 157 | 3.0 | 7.0 | 0.00 | 0.06 | 0.03 | 82 | 1007.5 |
| 20260509141007 | 60 | 259 | 3.0 | 8.0 | 0.00 | 0.06 | 0.03 | 81 | 1007.5 |
| 20260509140504 | 60 | 232 | 3.0 | 8.0 | 0.00 | 0.06 | 0.03 | 83 | 1007.5 |
| 20260509140020 | 59 | 170 | 1.0 | 9.0 | 0.00 | 0.06 | 0.03 | 86 | 1007.5 |
| 20260509135505 | 58 | 306 | 3.0 | 9.0 | 0.00 | 0.06 | 0.03 | 86 | 1007.5 |
| 20260509135013 | 57 | 239 | 3.0 | 7.0 | 0.00 | 0.06 | 0.03 | 86 | 1007.7 |
| 20260509134521 | 57 | 183 | 3.0 | 7.0 | 0.00 | 0.06 | 0.03 | 87 | 1007.8 |
| 20260509134015 | 57 | 279 | 2.0 | 10.0 | 0.00 | 0.06 | 0.03 | 87 | 1007.7 |
| 20260509133504 | 57 | 324 | 4.0 | 10.0 | 0.00 | 0.06 | 0.03 | 86 | 1007.9 |
| 20260509133005 | 57 | 171 | 3.0 | 10.0 | 0.00 | 0.06 | 0.03 | 87 | 1007.9 |
| 20260509132505 | 56 | 303 | 4.0 | 10.0 | 0.00 | 0.06 | 0.03 | 88 | 1008.0 |
| 20260509132004 | 56 | 220 | 4.0 | 8.0 | 0.00 | 0.06 | 0.03 | 88 | 1007.9 |
| 20260509131514 | 56 | 183 | 1.0 | 7.0 | 0.00 | 0.06 | 0.03 | 90 | 1007.8 |
| 20260509131007 | 56 | 193 | 2.0 | 7.0 | 0.00 | 0.06 | 0.03 | 90 | 1007.9 |
| 20260509130507 | 55 | 208 | 3.0 | 7.0 | 0.00 | 0.06 | 0.03 | 91 | 1007.9 |
| 20260509130018 | 55 | 267 | 1.0 | 5.0 | 0.00 | 0.06 | 0.03 | 92 | 1007.9 |
| 20260509125501 | 54 | 143 | 2.0 | 7.0 | 0.00 | 0.06 | 0.03 | 92 | 1007.9 |
| 20260509125000 | 54 | 198 | 3.0 | 7.0 | 0.00 | 0.06 | 0.03 | 92 | 1007.9 |
| 20260509124508 | 54 | 198 | 2.0 | 5.0 | 0.00 | 0.06 | 0.03 | 92 | 1007.9 |
| 20260509124003 | 54 | 215 | 1.0 | 5.0 | 0.00 | 0.06 | 0.03 | 92 | 1007.8 |
| 20260509123503 | 53 | 205 | 2.0 | 6.0 | 0.00 | 0.06 | 0.03 | 93 | 1007.9 |
| 20260509123007 | 53 | 188 | 2.0 | 6.0 | 0.00 | 0.06 | 0.03 | 92 | 1007.9 |
| 20260509122504 | 53 | 159 | 2.0 | 4.0 | 0.00 | 0.06 | 0.03 | 93 | 1008.2 |
| 20260509122008 | 53 | 186 | 1.0 | 4.0 | 0.00 | 0.06 | 0.03 | 93 | 1008.2 |
| 20260509121517 | 53 | 197 | 2.0 | 4.0 | 0.00 | 0.06 | 0.03 | 93 | 1008.2 |
| 20260509121005 | 53 | 198 | 1.0 | 4.0 | 0.00 | 0.06 | 0.03 | 93 | 1008.1 |
| 20260509120507 | 53 | 198 | 1.0 | 3.0 | 0.00 | 0.06 | 0.03 | 93 | 1008.1 |
| 20260509120018 | 53 | 164 | 1.0 | 3.0 | 0.00 | 0.06 | 0.03 | 93 | 1008.1 |
| 20260509115507 | 53 | 159 | 1.0 | 3.0 | 0.00 | 0.06 | 0.03 | 93 | 1008.0 |
| 20260509115009 | 53 | 175 | 1.0 | 3.0 | 0.00 | 0.06 | 0.03 | 93 | 1008.1 |
| 20260509114527 | 53 | 184 | 1.0 | 3.0 | 0.00 | 0.06 | 0.03 | 93 | 1008.0 |
| 20260509114000 | 53 | 261 | 0.0 | 4.0 | 0.00 | 0.06 | 0.03 | 93 | 1007.9 |
| 20260509113503 | 53 | 160 | 2.0 | 4.0 | 0.00 | 0.06 | 0.03 | 93 | 1007.8 |
| 20260509113007 | 53 | 148 | 1.0 | 3.0 | 0.00 | 0.06 | 0.03 | 93 | 1007.9 |
| 20260509112503 | 53 | 242 | 1.0 | 7.0 | 0.00 | 0.06 | 0.03 | 93 | 1007.7 |
| 20260509112003 | 53 | 175 | 1.0 | 7.0 | 0.00 | 0.06 | 0.03 | 93 | 1007.6 |
| 20260509111508 | 53 | 180 | 2.0 | 6.0 | 0.00 | 0.06 | 0.03 | 93 | 1007.6 |
| 20260509111004 | 53 | 155 | 1.0 | 5.0 | 0.00 | 0.06 | 0.03 | 93 | 1007.6 |
| 20260509110504 | 53 | 145 | 1.0 | 3.0 | 0.00 | 0.06 | 0.03 | 92 | 1007.6 |
| 20260509110017 | 53 | 188 | 1.0 | 4.0 | 0.00 | 0.06 | 0.03 | 92 | 1007.7 |
| 20260509105505 | 53 | 171 | 2.0 | 4.0 | 0.00 | 0.06 | 0.03 | 92 | 1007.6 |
| 20260509105010 | 53 | 132 | 3.0 | 5.0 | 0.00 | 0.06 | 0.03 | 92 | 1007.5 |
| 20260509104522 | 53 | 190 | 2.0 | 5.0 | 0.00 | 0.06 | 0.03 | 92 | 1007.8 |
| 20260509104008 | 53 | 157 | 2.0 | 6.0 | 0.00 | 0.06 | 0.03 | 92 | 1007.7 |
| 20260509103509 | 53 | 180 | 1.0 | 6.0 | 0.00 | 0.06 | 0.03 | 91 | 1007.6 |
| 20260509103004 | 53 | 213 | 2.0 | 6.0 | 0.00 | 0.06 | 0.03 | 91 | 1007.4 |
| 20260509102506 | 53 | 138 | 3.0 | 6.0 | 0.00 | 0.06 | 0.03 | 91 | 1007.5 |
| 20260509102006 | 53 | 182 | 2.0 | 6.0 | 0.00 | 0.06 | 0.03 | 91 | 1007.6 |
| 20260509101507 | 53 | 200 | 3.0 | 6.0 | 0.00 | 0.06 | 0.03 | 91 | 1007.6 |
| 20260509101003 | 53 | 180 | 2.0 | 9.0 | 0.00 | 0.06 | 0.03 | 91 | 1007.6 |
| 20260509100504 | 53 | 177 | 3.0 | 9.0 | 0.00 | 0.06 | 0.03 | 91 | 1007.6 |
| 20260509100020 | 53 | 171 | 3.0 | 8.0 | 0.00 | 0.06 | 0.03 | 91 | 1007.6 |
| 20260509095504 | 53 | 226 | 3.0 | 10.0 | 0.00 | 0.06 | 0.03 | 91 | 1007.8 |
| 20260509095004 | 53 | 275 | 3.0 | 10.0 | 0.00 | 0.06 | 0.03 | 91 | 1007.7 |
| 20260509094521 | 53 | 170 | 3.0 | 9.0 | 0.00 | 0.06 | 0.03 | 91 | 1007.7 |
| 20260509094008 | 53 | 234 | 2.0 | 7.0 | 0.00 | 0.06 | 0.03 | 92 | 1007.8 |
| 20260509093507 | 53 | 192 | 2.0 | 11.0 | 0.00 | 0.06 | 0.03 | 92 | 1007.8 |
| 20260509093024 | 53 | 197 | 3.0 | 11.0 | 0.00 | 0.06 | 0.03 | 92 | 1007.7 |
| 20260509092508 | 53 | 197 | 4.0 | 8.0 | 0.00 | 0.06 | 0.03 | 92 | 1007.8 |
| 20260509092010 | 53 | 171 | 3.0 | 8.0 | 0.00 | 0.06 | 0.03 | 92 | 1007.8 |
| 20260509091517 | 53 | 154 | 3.0 | 8.0 | 0.00 | 0.06 | 0.03 | 92 | 1007.8 |
| 20260509091004 | 53 | 171 | 3.0 | 8.0 | 0.00 | 0.06 | 0.03 | 92 | 1007.9 |
| 20260509090503 | 53 | 207 | 3.0 | 8.0 | 0.00 | 0.06 | 0.03 | 92 | 1007.9 |
| 20260509090014 | 53 | 202 | 2.0 | 9.0 | 0.00 | 0.06 | 0.03 | 92 | 1007.8 |
| 20260509084517 | 53 | 175 | 2.0 | 10.0 | 0.00 | 0.06 | 0.03 | 92 | 1007.9 |
| 20260509083021 | 53 | 205 | 1.0 | 6.0 | 0.00 | 0.06 | 0.03 | 92 | 1007.9 |
| 20260509081524 | 53 | 196 | 1.0 | 7.0 | 0.00 | 0.06 | 0.03 | 92 | 1008.0 |
| 20260509080506 | 53 | 194 | 2.0 | 8.0 | 0.00 | 0.06 | 0.03 | 92 | 1008.0 |
| 20260509080012 | 53 | 215 | 4.0 | 7.0 | 0.00 | 0.06 | 0.03 | 93 | 1008.1 |
| 20260509075506 | 53 | 238 | 3.0 | 6.0 | 0.01 | 0.06 | 0.03 | 93 | 1008.1 |
| 20260509075005 | 53 | 172 | 1.0 | 6.0 | 0.01 | 0.06 | 0.03 | 93 | 1008.2 |
| 20260509074512 | 53 | 212 | 2.0 | 6.0 | 0.01 | 0.06 | 0.03 | 93 | 1008.3 |
| 20260509073504 | 53 | 186 | 1.0 | 4.0 | 0.01 | 0.06 | 0.03 | 93 | 1008.4 |
| 20260509073018 | 53 | 186 | 2.0 | 4.0 | 0.01 | 0.06 | 0.03 | 93 | 1008.5 |
| 20260509071522 | 53 | 212 | 0.0 | 3.0 | 0.03 | 0.06 | 0.03 | 93 | 1008.6 |